Flag for Norway Weather past 2 weeks in Røyken, Norway

41 °F

Passing clouds.

Feels Like: 30 °F
Forecast: 11 / 23 °F
Wind: 29 mph from Northwest

Location: Oslo / Fornebu

Current Time: Nov 25, 2015 at 7:46:59 PM

Latest Report: Nov 25, 2015 at 6:50 PM

Visibility: N/A

Pressure: 29.62 "Hg

Humidity: 70%

Dew point: 32 °F

Location of RøykenLocation

Historic Weather in Røyken — Graph


Røyken temperature yesterday

Maximum temperature yesterday: 46 °F (at 12:20 AM)
Minimum temperature yesterday: 43 °F (at 2:50 PM)
Average temperature yesterday: 46 °F

Past Weeks' High & Low Weather Summary

High52 °F (Nov 12, 10:50 PM)100% (Nov 16, 7:50 AM)30.01 "Hg (Nov 16, 7:50 AM)
Low32 °F (Nov 21, 2:20 AM)45% (Nov 20, 2:20 AM)28.74 "Hg (Nov 17, 7:50 AM)
Average45 °F74%29.41 "Hg
* Reported Nov 10 6:20 PM — Nov 25 6:50 PM, Røyken, Weather by CustomWeather, © 2015

Note: Actual official high and low records may vary slightly from our data, if they occured in-between our weather recording intervals... More about our weather records


Røyken weather history for previous 24 hours

Time TempWeatherWind HumidityBarometerVisibility
6:50 PM
Wed, Nov 25
41 °FPassing clouds.29 mph70%29.62 "HgN/A
6:20 PM41 °FPassing clouds.32 mph61%29.62 "HgN/A
5:50 PM41 °FPassing clouds.31 mph70%29.62 "HgN/A
5:20 PM41 °FPartly cloudy.33 mph76%29.59 "HgN/A
4:50 PM41 °FPassing clouds.29 mph76%29.59 "HgN/A
4:20 PM41 °FPassing clouds.30 mph70%29.59 "HgN/A
3:50 PM41 °FPassing clouds.30 mph70%29.56 "HgN/A
3:20 PM41 °FPartly sunny.32 mph70%29.56 "HgN/A
2:50 PM41 °FPartly sunny.32 mph66%29.56 "HgN/A
2:20 PM43 °FPartly sunny.31 mph61%29.53 "HgN/A
1:50 PM43 °FPartly sunny.29 mph71%29.53 "HgN/A
1:20 PM43 °FBroken clouds.36 mph66%29.53 "HgN/A
12:50 PM41 °FSprinkles. Partly sunny.39 mph76%29.50 "HgN/A
12:20 PM43 °FPartly sunny.33 mph66%29.50 "HgN/A
11:50 AM43 °FPassing clouds.36 mph61%29.50 "HgN/A
11:20 AM43 °FPartly sunny.36 mph66%29.47 "HgN/A
10:50 AM43 °FBroken clouds.37 mph57%29.47 "HgN/A
10:20 AM41 °FSprinkles. Partly sunny.33 mph70%29.45 "HgN/A
9:50 AM43 °FScattered clouds.32 mph66%29.45 "HgN/A
9:20 AM41 °FSprinkles. Broken clouds.31 mph70%29.45 "HgN/A
8:50 AM43 °FScattered clouds.35 mph71%29.42 "HgN/A
7:50 AM41 °FSprinkles. Passing clouds.24 mph81%29.42 "HgN/A
7:20 AM41 °FPassing clouds.29 mph76%29.42 "HgN/A
6:50 AM41 °FLight rain. Passing clouds.31 mph81%29.39 "HgN/A
6:20 AM43 °FPartly cloudy.33 mph66%29.39 "HgN/A
5:50 AM43 °FPassing clouds.29 mph71%29.36 "HgN/A
4:50 AM43 °FPassing clouds.33 mph71%29.36 "HgN/A
4:20 AM43 °FPassing clouds.30 mph76%29.33 "HgN/A
3:50 AM43 °FPassing clouds.32 mph66%29.33 "HgN/A
3:20 AM43 °FPassing clouds.28 mph66%29.33 "HgN/A
2:50 AM43 °FSprinkles. Passing clouds.28 mph66%29.33 "HgN/A
2:20 AM43 °FLight rain. Passing clouds.31 mph71%29.30 "HgN/A
1:50 AM43 °FPartly cloudy.28 mph66%29.30 "HgN/A
1:20 AM45 °FPartly cloudy.30 mph61%29.30 "HgN/A
12:50 AM43 °FPassing clouds.29 mph71%29.30 "HgN/A
12:20 AM43 °FPassing clouds.31 mph76%29.27 "HgN/A
11:50 PM
Tue, Nov 24
43 °FSprinkles. Passing clouds.28 mph81%29.27 "HgN/A
11:20 PM45 °FSprinkles. Passing clouds.28 mph81%29.24 "HgN/A
10:50 PM45 °FSprinkles. Partly cloudy.15 mph81%29.24 "HgN/A
10:20 PM45 °FPartly cloudy.16 mph76%29.24 "HgN/A
9:50 PM45 °FPassing clouds.23 mph76%29.24 "HgN/A
9:20 PM45 °FSprinkles. Passing clouds.28 mph81%29.24 "HgN/A
8:50 PM45 °FSprinkles. Passing clouds.29 mph76%29.24 "HgN/A
8:20 PM46 °FSprinkles. Passing clouds.23 mph71%29.24 "HgN/A
7:50 PM45 °FSprinkles. Passing clouds.24 mph76%29.24 "HgN/A
7:20 PM46 °FPassing clouds.25 mph76%29.24 "HgN/A
Weather by CustomWeather, © 2015

See weather overviewHow to use our weather pages